Home   Weather   Rockford   Past weeks

Flag for USA Past Weather in Rockford, Illinois, USA — Yesterday and Last 2 Weeks

Now
60 °F

Drizzle. Fog.


Feels Like: 60 °F
Forecast: 58 / 64 °F
Wind: 14 mph from North

Location: Greater Rockford Airport

Current Time: Sep 30, 2016 at 6:58:50 AM

Latest Report: Sep 30, 2016 at 5:54 AM


Visibility: 6 mi

Pressure: 30.21 "Hg

Humidity: 90%

Dew Point: 57 °F

Location of RockfordLocation

Past Weather in Rockford — Graph

°F

Rockford Temperature Yesterday

Maximum temperature yesterday: 69 °F (at 11:54 AM)
Minimum temperature yesterday: 56 °F (at 12:54 AM)
Average temperature yesterday: 62 °F

High & Low Weather Summary for the Past Weeks

 TemperatureHumidityPressure
High88 °F (Sep 19, 3:54 PM)97% (Sep 17, 4:54 AM)30.29 "Hg (Sep 17, 4:54 AM)
Low49 °F (Sep 27, 6:54 AM)29% (Sep 19, 1:54 PM)29.76 "Hg (Sep 27, 4:54 PM)
Average67 °F71%30.04 "Hg
* Reported Sep 15 4:54 AM — Sep 30 4:54 AM, Rockford, Weather by CustomWeather, © 2016

Note: Actual official high and low records may vary slightly from our data, if they occured in-between our weather recording intervals... More about our weather records

Advertising

Rockford Weather History for the Previous 24 Hours

Scroll right to see more
 ConditionsComfort  
Time TempWeatherWind HumidityBarometerVisibility
4:54 AM
Fri, Sep 30
60 °FOvercast.15 mph86%30.21 "Hg10 mi
3:54 AM60 °FOvercast.15 mph83%30.21 "Hg8 mi
2:54 AM61 °FDrizzle. Mostly cloudy.13 mph83%30.22 "Hg8 mi
2:01 AM61 °FOvercast.13 mph83%30.22 "Hg10 mi
12:54 AM61 °FMostly cloudy.10 mph83%30.23 "Hg10 mi
11:54 PM
Thu, Sep 29
62 °FOvercast.12 mph80%30.25 "Hg10 mi
10:54 PM61 °FPassing clouds.8 mph81%30.26 "Hg10 mi
9:54 PM62 °FPassing clouds.7 mph78%30.27 "Hg10 mi
8:54 PM63 °FPassing clouds.9 mph75%30.28 "Hg10 mi
7:54 PM63 °FLight rain. Passing clouds.10 mph75%30.29 "Hg9 mi
6:54 PM65 °FPassing clouds.13 mph66%30.27 "Hg10 mi
5:54 PM66 °FPartly sunny.13 mph63%30.27 "Hg10 mi
4:54 PM67 °FPartly sunny.18 mph63%30.25 "Hg10 mi
3:54 PM66 °FMore clouds than sun.21 mph68%30.25 "Hg10 mi
2:54 PM69 °FMostly cloudy.17 mph61%30.24 "Hg10 mi
1:54 PM69 °FMostly cloudy.21 mph61%30.23 "Hg10 mi
12:54 PM69 °FMostly cloudy.26 mph57%30.24 "Hg10 mi
11:54 AM69 °FBroken clouds.21 mph61%30.24 "Hg10 mi
10:54 AM67 °FPassing clouds.20 mph68%30.25 "Hg10 mi
9:54 AM62 °FPartly sunny.17 mph75%30.26 "Hg10 mi
8:54 AM60 °FPartly sunny.14 mph78%30.24 "Hg10 mi
7:54 AM58 °FOvercast.16 mph81%30.24 "Hg10 mi
6:54 AM58 °FOvercast.20 mph81%30.23 "Hg10 mi
Weather by CustomWeather, © 2016

See weather overviewHow to use our weather pages